Location: El Centro
(32.7920°N, 115.5620°W)
Time: 01:04:53
(UTC-07:00)

Amateur Radio Satellites - All Passes

Search period start: 24 March 2017 00:34
Search period end: 25 March 2017 00:34
Location: El Centro, 32.7920°N, 115.5620°W

Satellite Date Start Highest point End Downlink Frequencies (MHz)
Time Altitude Azimuth
AIST 2D 24 Mar 00:39:23 00:42:16 25° 287° (WNW) 00:45:09 435.315
NANOSAT C BR1 24 Mar 00:49:40 00:53:47 53° 285° (WNW) 00:57:52 145.865
Oscar 19 24 Mar 00:52:01 00:53:32 11° 92° (E) 00:55:04 437.125/150
EO-79 24 Mar 00:52:22 00:56:24 44° 286° (WNW) 01:00:25 145.935-145.965
RS-15 24 Mar 00:53:06 01:02:01 25° 259° (W) 01:10:40 29.354- 29.394
50 SAT 24 Mar 00:55:20 00:58:34 38° 261° (W) 01:01:49 437.505
SPROUT 24 Mar 00:58:31 01:02:23 33° 262° (W) 01:06:18 437.525
DX 1 24 Mar 01:14:20 01:18:30 48° 260° (W) 01:22:43 434.975-435.025
POLYITAN 1 24 Mar 01:20:16 01:23:29 21° 290° (WNW) 01:26:39 437.675
QB50P2 24 Mar 01:25:04 01:27:53 18° 291° (WNW) 01:30:42 145.880/145.840
VELOX 1 24 Mar 01:29:54 01:31:58 13° 267° (W) 01:34:03 145.980
DUCHIFAT 1 24 Mar 01:42:17 01:44:38 15° 292° (WNW) 01:46:58 145.980
SO-50 24 Mar 01:43:55 01:47:44 28° 248° (WSW) 01:51:33 436.795
UKube-1 24 Mar 02:01:40 02:04:47 19° 264° (W) 02:07:55 .
BUGSAT 1 24 Mar 02:09:41 02:12:50 21° 290° (WNW) 02:15:58 437.445
Gurwin Techsat 1B 24 Mar 02:18:59 02:24:11 54° 100° (E) 02:29:22 435.225
Oscar 19 24 Mar 02:28:04 02:33:12 65° 285° (WNW) 02:38:19 437.125/150
BEESAT 24 Mar 02:34:14 02:38:53 54° 74° (ENE) 02:43:32 436.000
ITUPSAT 1 24 Mar 02:48:19 02:53:07 76° 76° (ENE) 02:57:55 437.325
O/OREOS (USA 219) 24 Mar 02:51:04 02:54:35 21° 63° (ENE) 02:58:05 437.305
AO-7 24 Mar 03:07:33 03:13:55 24° 96° (E) 03:20:14 .
MOZHAYETS 4 24 Mar 03:16:53 03:21:24 59° 76° (ENE) 03:25:55
KKS-1 24 Mar 03:21:54 03:23:50 13° 66° (ENE) 03:25:46 437.445
Tancredo 1 24 Mar 03:32:12 03:32:56 11° 29° (NNE) 03:33:41 437.200
Gurwin Techsat 1B 24 Mar 04:00:31 04:03:37 16° 295° (WNW) 04:06:44 435.225
CUBESAT XI-V 24 Mar 04:02:10 04:05:58 26° 71° (ENE) 04:09:47 437.345
STARS 24 Mar 04:05:09 04:07:57 17° 68° (ENE) 04:10:46 437.465
ITAMSAT 1 24 Mar 04:08:40 04:13:52 81° 285° (WNW) 04:19:02 435.822/435.867
BEESAT 24 Mar 04:15:03 04:16:54 12° 267° (W) 04:18:45 436.000
O/OREOS (USA 219) 24 Mar 04:29:59 04:33:57 29° 257° (WSW) 04:37:55 437.305
ISS 24 Mar 04:53:37 04:56:53 56° 42° (NE) 05:00:07 437.550
KKS-1 24 Mar 04:55:37 04:59:54 48° 260° (W) 05:04:15 437.445
AO-7 24 Mar 04:58:53 05:07:01 62° 291° (WNW) 05:15:07 .
Tancredo 1 24 Mar 05:06:16 05:09:29 86° 223° (SW) 05:12:41 437.200
M-CUBED/EXP-1 PRIME 24 Mar 05:22:30 05:25:14 21° 65° (ENE) 05:28:08 437.505
CUBESAT XI-V 24 Mar 05:39:37 05:43:15 23° 264° (W) 05:46:53 437.345
STARS 24 Mar 05:39:56 05:43:58 35° 262° (W) 05:48:02 437.465
CUTE-I 24 Mar 05:41:18 05:42:49 11° 92° (E) 05:44:21 437.470
LilacSat-2 24 Mar 05:45:47 05:46:23 10° 93° (E) 05:46:59 437.200
AO-85 24 Mar 05:46:21 05:48:08 13° 51° (NE) 05:49:57 145.980
XW-2F 24 Mar 05:49:20 05:50:02 10° 93° (E) 05:50:44 145.980 - 146.000
XW-2D 24 Mar 06:11:20 06:14:24 24° 97° (E) 06:17:27 145.860 - 145.880
XW-2B 24 Mar 06:17:03 06:20:17 27° 97° (E) 06:23:29 145.730 - 145.750
NUDT-PHONESAT 24 Mar 06:20:51 06:23:51 24° 96° (E) 06:26:50 437.300
DOVE 4 24 Mar 06:23:44 06:28:57 56° 100° (E) 06:34:02 437.250
KAITUO 1B 24 Mar 06:24:28 06:27:38 27° 97° (E) 06:30:48 145.475/437.950
XW-2C 24 Mar 06:26:53 06:30:23 38° 99° (E) 06:33:52 145.795 - 145.815
M-CUBED/EXP-1 PRIME 24 Mar 06:57:09 06:59:37 18° 261° (W) 07:02:13 437.505
AO-7 24 Mar 06:57:15 06:58:06 10° 309° (NW) 06:58:57 .
STRAND 1 24 Mar 07:01:32 07:06:30 51° 74° (ENE) 07:11:29 437.568
XW-2A 24 Mar 07:16:03 07:18:18 17° 95° (E) 07:20:32 145.665 - 145.685
LilacSat-2 24 Mar 07:17:18 07:20:47 36° 286° (WNW) 07:24:14 437.200
CUTE-I 24 Mar 07:17:56 07:23:16 69° 285° (WNW) 07:28:32 437.470
XW-2F 24 Mar 07:20:52 07:24:17 35° 286° (WNW) 07:27:42 145.980 - 146.000
CUTE 1.7 + AOD 2 24 Mar 07:20:57 07:23:51 18° 95° (E) 07:26:45 437.475
SEEDS 24 Mar 07:21:12 07:22:00 10° 92° (E) 07:22:48 437.485
AO-85 24 Mar 07:24:54 07:28:41 45° 245° (WSW) 07:32:38 145.980
NO-84 24 Mar 07:29:22 07:32:11 51° 313° (NW) 07:34:57 435.350 FM
YUBILEINY 24 Mar 07:45:07 07:53:42 61° 91° (E) 08:02:13 435.215
XW-2D 24 Mar 07:45:58 07:48:22 16° 290° (WNW) 07:50:46 145.860 - 145.880
XW-2B 24 Mar 07:52:07 07:54:12 15° 290° (WNW) 07:56:18 145.730 - 145.750
HO-68 24 Mar 07:53:45 08:00:41 51° 101° (E) 08:07:36 435.675
NUDT-PHONESAT 24 Mar 07:55:17 07:57:33 16° 290° (WNW) 07:59:49 437.300
KAITUO 1B 24 Mar 07:59:23 08:01:23 14° 290° (WNW) 08:03:24 145.475/437.950
DOVE 4 24 Mar 08:03:01 08:06:03 16° 294° (WNW) 08:09:05 437.250
XW-2C 24 Mar 08:03:21 08:04:11 11° 292° (WNW) 08:05:00 145.795 - 145.815
BEESAT 3 24 Mar 08:06:20 08:10:07 38° 58° (ENE) 08:13:50 437.485
CUBEBUG 2 24 Mar 08:10:54 08:14:47 31° 97° (E) 08:18:34 437.445
BEESAT 2 24 Mar 08:16:34 08:19:33 20° 53° (NE) 08:22:31 435.950
Oscar 11 24 Mar 08:29:09 08:30:42 12° 93° (E) 08:32:16 .
ZACube-1 24 Mar 08:30:42 08:33:21 16° 94° (E) 08:35:57 437.345
PCSat 24 Mar 08:37:37 08:38:42 11° 102° (ESE) 08:39:48 145.827
FO-29 24 Mar 08:39:38 08:41:52 11° 59° (ENE) 08:44:04 435.910
STRAND 1 24 Mar 08:43:05 08:45:53 15° 267° (W) 08:48:43 437.568
AAUSAT CUBESAT 2 24 Mar 08:46:03 08:50:10 59° 101° (E) 08:54:15 437.432
JUGNU 24 Mar 08:46:12 08:50:08 18° 169° (S) 08:54:05 437.505
XW-2A 24 Mar 08:48:34 08:50:56 18° 288° (WNW) 08:53:17 145.665 - 145.685
SEEDS 24 Mar 08:53:51 08:57:52 46° 285° (WNW) 09:01:53 437.485
TIGRISAT 24 Mar 08:55:47 08:57:42 12° 66° (ENE) 08:59:37 435.000
CUTE 1.7 + AOD 2 24 Mar 08:56:03 08:59:39 28° 287° (WNW) 09:03:15 437.475
AO-73 24 Mar 08:59:41 09:03:30 33° 98° (E) 09:07:15 145.935
PRISM 24 Mar 09:02:26 09:05:59 30° 72° (ENE) 09:09:34 437.425
UNISAT 6 24 Mar 09:03:57 09:06:57 17° 68° (ENE) 09:09:56 437.425
UWE-3 24 Mar 09:18:50 09:23:06 63° 284° (WNW) 09:27:15 435.000/436.395/437.385
HO-68 24 Mar 09:42:19 09:47:58 26° 296° (WNW) 09:53:37 435.675
YUBILEINY 24 Mar 09:44:14 09:50:56 24° 288° (WNW) 09:57:39 435.215
BEESAT 3 24 Mar 09:45:24 09:47:19 13° 252° (WSW) 09:49:12 437.485
CUBEBUG 2 24 Mar 09:48:10 09:51:06 18° 292° (WNW) 09:54:00 437.445
BEESAT 2 24 Mar 09:53:49 09:57:18 28° 248° (WSW) 10:00:46 435.950
Oscar 11 24 Mar 10:02:55 10:07:00 44° 286° (WNW) 10:11:05 .
ZACube-1 24 Mar 10:05:57 10:09:39 30° 288° (WNW) 10:13:17 437.345
PCSat 24 Mar 10:15:58 10:21:22 75° 296° (WNW) 10:26:48 145.827
FO-29 24 Mar 10:17:51 10:25:39 69° 74° (ENE) 10:33:11 435.910
DELFI C3 24 Mar 10:28:29 10:32:28 76° 283° (WNW) 10:36:26 145.870
TIGRISAT 24 Mar 10:29:15 10:33:50 56° 260° (W) 10:38:28 435.000
JUGNU 24 Mar 10:33:57 10:38:32 23° 179° (S) 10:43:08 437.505
POLYITAN 1 24 Mar 10:34:43 10:35:59 11° 66° (ENE) 10:37:15 437.675
AO-73 24 Mar 10:36:59 10:39:25 15° 292° (WNW) 10:41:48 145.935
QB50P2 24 Mar 10:38:16 10:40:24 14° 68° (ENE) 10:42:33 145.880/145.840
PRISM 24 Mar 10:38:53 10:41:18 15° 265° (W) 10:43:44 437.425
UNISAT 6 24 Mar 10:38:53 10:43:17 39° 262° (W) 10:47:41 437.425
SRMSAT 24 Mar 10:44:48 10:48:13 16° 166° (SSE) 10:51:38 437.500
RS-15 24 Mar 10:50:45 10:55:48 14° 97° (E) 11:00:53 29.354- 29.394
DUCHIFAT 1 24 Mar 10:53:54 10:56:28 16° 68° (ENE) 10:59:00 145.980
AIST 2D 24 Mar 11:08:39 11:12:05 49° 76° (ENE) 11:15:32 435.315
LO-87 24 Mar 11:14:54 11:18:17 35° 98° (E) 11:21:37 145.935 - 145.965
NANOSAT C BR1 24 Mar 11:36:44 11:40:54 59° 76° (ENE) 11:45:06 145.865
EO-79 24 Mar 11:39:38 11:43:52 71° 77° (ENE) 11:48:09 145.935-145.965
VELOX 1 24 Mar 11:47:51 11:49:17 11° 93° (E) 11:50:43 145.980
ESTCUBE 1 24 Mar 11:58:21 12:02:49 61° 101° (E) 12:07:17 437.505/2401.250
Oscar 19 24 Mar 12:05:16 12:06:48 11° 64° (ENE) 12:08:19 437.125/150
FO-29 24 Mar 12:05:24 12:10:56 21° 267° (W) 12:16:25 435.910
POLYITAN 1 24 Mar 12:07:06 12:11:16 51° 260° (W) 12:15:27 437.675
QB50P2 24 Mar 12:11:46 12:15:48 40° 261° (W) 12:19:51 145.880/145.840
JUGNU 24 Mar 12:22:51 12:26:57 19° 190° (S) 12:31:03 437.505
50 SAT 24 Mar 12:24:34 12:26:53 17° 96° (E) 12:29:11 437.505
DUCHIFAT 1 24 Mar 12:27:55 12:31:48 34° 262° (W) 12:35:42 145.980
SRMSAT 24 Mar 12:32:11 12:36:45 23° 176° (S) 12:41:20 437.500
SPROUT 24 Mar 12:48:07 12:52:20 55° 100° (E) 12:56:31 437.525
LO-87 24 Mar 12:50:25 12:51:21 11° 291° (WNW) 12:52:16 145.935 - 145.965
BUGSAT 1 24 Mar 12:53:32 12:57:39 56° 260° (W) 13:01:50 437.445
RS-15 24 Mar 12:54:19 13:06:06 76° 114° (ESE) 13:18:23 29.354- 29.394
DX 1 24 Mar 13:06:45 13:10:52 39° 99° (E) 13:14:58 434.975-435.025
VELOX 1 24 Mar 13:21:37 13:25:57 49° 286° (WNW) 13:30:14 145.980
Gurwin Techsat 1B 24 Mar 13:35:34 13:40:44 55° 74° (ENE) 13:45:55 435.225
ESTCUBE 1 24 Mar 13:38:29 13:39:02 10° 295° (WNW) 13:39:36 437.505/2401.250
Oscar 19 24 Mar 13:40:22 13:45:27 71° 258° (WSW) 13:50:34 437.125/150
UKube-1 24 Mar 13:51:32 13:55:53 85° 279° (W) 14:00:12 .
50 SAT 24 Mar 13:57:11 13:59:49 20° 288° (WNW) 14:02:26 437.505
AO-7 24 Mar 14:02:25 14:08:40 24° 59° (ENE) 14:14:55 .
NO-84 24 Mar 14:07:47 14:08:46 11° 38° (NE) 14:09:47 435.350 FM
SO-50 24 Mar 14:13:54 14:17:26 21° 110° (ESE) 14:20:57 436.795
SRMSAT 24 Mar 14:20:53 14:25:21 22° 186° (S) 14:29:46 437.500
SPROUT 24 Mar 14:27:16 14:27:42 10° 294° (WNW) 14:28:07 437.525
BEESAT 24 Mar 14:39:40 14:43:03 19° 95° (E) 14:46:26 436.000
DX 1 24 Mar 14:44:11 14:46:41 15° 292° (WNW) 14:49:10 434.975-435.025
ITUPSAT 1 24 Mar 14:53:46 14:57:48 27° 97° (E) 15:01:49 437.325
RS-15 24 Mar 15:09:30 15:19:47 32° 316° (NW) 15:30:24 29.354- 29.394
MOZHAYETS 4 24 Mar 15:17:13 15:20:27 19° 95° (E) 15:23:41
Gurwin Techsat 1B 24 Mar 15:18:10 15:20:56 14° 267° (W) 15:23:42 435.225
ITAMSAT 1 24 Mar 15:21:59 15:27:12 83° 256° (WSW) 15:32:28 435.822/435.867
NO-84 24 Mar 15:43:10 15:46:34 67° 230° (SW) 15:50:17 435.350 FM
AO-7 24 Mar 15:52:27 16:00:43 67° 255° (WSW) 16:09:00 .
SO-50 24 Mar 15:53:29 15:57:40 33° 304° (NW) 16:01:50 436.795
SRMSAT 24 Mar 16:11:05 16:13:52 13° 196° (SSW) 16:16:38 437.500
BEESAT 24 Mar 16:16:35 16:20:51 34° 289° (WNW) 16:25:05 436.000
ITUPSAT 1 24 Mar 16:31:38 16:35:27 24° 291° (WNW) 16:39:16 437.325
KKS-1 24 Mar 16:50:48 16:55:05 43° 100° (E) 16:59:20 437.445
MOZHAYETS 4 24 Mar 16:53:36 16:57:35 31° 288° (WNW) 17:01:35
O/OREOS (USA 219) 24 Mar 16:58:00 17:02:22 53° 105° (ESE) 17:06:48 437.305
CUTE-I 24 Mar 16:58:32 17:01:03 13° 64° (ENE) 17:03:34 437.470
XW-2C 24 Mar 17:06:27 17:07:16 11° 68° (ENE) 17:08:04 145.795 - 145.815
DOVE 4 24 Mar 17:24:56 17:28:55 31° 71° (ENE) 17:33:08 437.250
STARS 24 Mar 17:33:10 17:37:32 57° 101° (E) 17:41:50 437.465
RS-15 24 Mar 17:34:40 17:38:21 11° 350° (N) 17:42:03 29.354- 29.394
CUBESAT XI-V 24 Mar 17:39:15 17:43:52 67° 284° (WNW) 17:48:29 437.345
LilacSat-2 24 Mar 17:54:13 17:57:55 50° 76° (ENE) 18:01:38 437.200
XW-2F 24 Mar 17:56:50 18:00:30 49° 76° (ENE) 18:04:11 145.980 - 146.000
YUBILEINY 24 Mar 18:01:58 18:08:33 23° 72° (ENE) 18:15:06 435.215
HO-68 24 Mar 18:18:46 18:24:14 24° 63° (ENE) 18:29:43 435.675
XW-2D 24 Mar 18:21:15 18:25:03 67° 259° (W) 18:28:51 145.860 - 145.880
XW-2B 24 Mar 18:27:10 18:30:56 57° 260° (W) 18:34:42 145.730 - 145.750
NUDT-PHONESAT 24 Mar 18:28:39 18:32:23 70° 259° (W) 18:36:08 437.300
KKS-1 24 Mar 18:28:52 18:31:13 14° 293° (WNW) 18:33:33 437.445
KAITUO 1B 24 Mar 18:33:13 18:36:56 59° 260° (W) 18:40:39 145.475/437.950
CUTE-I 24 Mar 18:35:09 18:40:28 65° 258° (WSW) 18:45:50 437.470
XW-2C 24 Mar 18:37:26 18:41:02 40° 261° (W) 18:44:39 145.795 - 145.815
M-CUBED/EXP-1 PRIME 24 Mar 18:37:58 18:42:21 40° 103° (ESE) 18:46:42 437.505
O/OREOS (USA 219) 24 Mar 18:40:17 18:42:05 12° 301° (WNW) 18:43:54 437.305
DOVE 4 24 Mar 19:03:18 19:06:37 20° 267° (W) 19:10:07 437.250
CUBEBUG 2 24 Mar 19:04:54 19:08:03 18° 69° (ENE) 19:11:12 437.445
PCSat 24 Mar 19:08:35 19:13:30 34° 58° (ENE) 19:18:23 145.827
STARS 24 Mar 19:12:19 19:13:19 11° 295° (WNW) 19:14:19 437.465
XW-2A 24 Mar 19:14:21 19:17:45 63° 77° (ENE) 19:21:11 145.665 - 145.685
STRAND 1 24 Mar 19:17:06 19:21:15 25° 96° (E) 19:25:23 437.568
AAUSAT CUBESAT 2 24 Mar 19:32:25 19:35:31 21° 71° (ENE) 19:38:38 437.432
SEEDS 24 Mar 19:40:34 19:44:40 62° 76° (ENE) 19:48:47 437.485
CUTE 1.7 + AOD 2 24 Mar 19:43:18 19:47:31 73° 259° (W) 19:51:43 437.475
RS-15 24 Mar 19:51:11 19:58:49 18° 29° (NNE) 20:06:16 29.354- 29.394
AO-73 24 Mar 19:51:20 19:54:18 17° 69° (ENE) 19:57:15 145.935
ISS 24 Mar 19:55:20 19:57:10 14° 127° (SE) 19:59:02 437.550
AO-85 24 Mar 19:57:11 19:59:03 12° 109° (ESE) 20:00:53 145.980
YUBILEINY 24 Mar 19:57:18 20:05:50 63° 268° (W) 20:14:22 435.215
Tancredo 1 24 Mar 20:04:13 20:06:39 20° 129° (SE) 20:09:05 437.200
HO-68 24 Mar 20:04:30 20:11:27 55° 258° (WSW) 20:18:27 435.675
UWE-3 24 Mar 20:10:25 20:14:59 58° 75° (ENE) 20:19:33 435.000/436.395/437.385
M-CUBED/EXP-1 PRIME 24 Mar 20:13:15 20:16:25 18° 296° (WNW) 20:19:36 437.505
CUBEBUG 2 24 Mar 20:39:53 20:44:18 39° 262° (W) 20:48:45 437.445
PCSat 24 Mar 20:52:14 20:56:41 26° 253° (WSW) 21:01:06 145.827
Oscar 11 24 Mar 20:52:36 20:56:54 76° 77° (ENE) 21:01:13 .
ZACube-1 24 Mar 20:55:56 21:00:31 74° 259° (W) 21:05:03 437.345
STRAND 1 24 Mar 20:55:57 21:00:21 30° 290° (WNW) 21:04:45 437.568
AAUSAT CUBESAT 2 24 Mar 21:07:36 21:10:50 22° 264° (W) 21:14:05 437.432
DELFI C3 24 Mar 21:09:44 21:13:09 30° 73° (ENE) 21:16:35 145.870
AO-73 24 Mar 21:26:02 21:30:13 36° 262° (W) 21:34:22 145.935
ISS 24 Mar 21:30:20 21:33:22 36° 320° (NW) 21:36:26 437.550
AO-85 24 Mar 21:34:43 21:39:06 49° 300° (WNW) 21:43:14 145.980
Tancredo 1 24 Mar 21:39:59 21:42:40 25° 322° (NW) 21:45:23 437.200
UWE-3 24 Mar 21:50:35 21:51:41 11° 268° (W) 21:52:47 435.000/436.395/437.385
BEESAT 3 24 Mar 21:52:53 21:55:36 18° 110° (ESE) 21:58:20 437.485
RS-15 24 Mar 22:02:38 22:14:43 60° 56° (ENE) 22:26:11 29.354- 29.394
PRISM 24 Mar 22:22:28 22:26:39 84° 281° (W) 22:30:49 437.425
TIGRISAT 24 Mar 22:25:30 22:29:40 41° 99° (E) 22:33:43 435.000
UNISAT 6 24 Mar 22:34:55 22:39:17 60° 101° (E) 22:43:31 437.425
DELFI C3 24 Mar 22:45:49 22:47:57 14° 266° (W) 22:50:06 145.870
ESTCUBE 1 24 Mar 22:53:38 22:57:35 32° 72° (ENE) 23:01:33 437.505/2401.250
FO-29 24 Mar 23:18:55 23:24:53 86° 102° (ESE) 23:30:15 435.910
LO-87 24 Mar 23:19:32 23:23:00 49° 260° (W) 23:26:30 145.935 - 145.965
NANOSAT C BR1 24 Mar 23:27:13 23:29:12 13° 94° (E) 23:31:10 145.865
BEESAT 3 24 Mar 23:29:37 23:32:58 27° 304° (NW) 23:36:22 437.485
EO-79 24 Mar 23:29:59 23:32:36 16° 94° (E) 23:35:11 145.935-145.965
SPROUT 24 Mar 23:37:29 23:40:55 24° 71° (ENE) 23:44:22 437.525
BEESAT 2 24 Mar 23:40:17 23:44:08 55° 300° (WNW) 23:48:04 435.950
POLYITAN 1 24 Mar 23:56:28 00:00:19 34° 98° (E) 00:04:08 437.675
DX 1 24 Mar 23:58:39 00:01:46 20° 69° (ENE) 00:04:53 434.975-435.025
QB50P2 25 Mar 00:00:50 00:04:52 42° 99° (E) 00:08:52 145.880/145.840
TIGRISAT 25 Mar 00:03:43 00:05:55 14° 293° (WNW) 00:08:06 435.000
AIST 2D 25 Mar 00:11:06 00:14:33 65° 283° (WNW) 00:17:59 435.315
VELOX 1 25 Mar 00:13:55 00:18:18 81° 75° (ENE) 00:22:43 145.980
DUCHIFAT 1 25 Mar 00:15:55 00:20:00 48° 100° (E) 00:24:02 145.980
50 SAT 25 Mar 00:25:23 00:28:47 68° 77° (ENE) 00:32:13 437.505
